Time,TemperatureF,DewpointF,PressureIn,WindDirection,WindDirectionDegrees,WindSpeedMPH,WindSpeedGustMPH,Humidity,HourlyPrecipIn,Conditions,Clouds,dailyrainin,SoftwareType,DateUTC
2013-07-18 00:02:00,60.1,51.0,29.53,SW,228,0.0,0.0,72,0.00,CLR,,0.00,WeatherDisplay:10.37,2013-07-18 07:02:00,
2013-07-18 00:07:00,60.1,51.4,29.53,SW,228,0.0,0.0,73,0.00,CLR,,0.00,WeatherDisplay:10.37,2013-07-18 07:07:00,
2013-07-18 00:12:00,59.9,51.2,29.53,SW,228,0.0,0.0,73,0.00,CLR,,0.00,WeatherDisplay:10.37,2013-07-18 07:12:00,
2013-07-18 00:17:00,59.7,51.0,29.53,SW,228,0.0,0.0,73,0.00,CLR,,0.00,WeatherDisplay:10.37,2013-07-18 07:17:00,
2013-07-18 00:22:00,59.7,51.0,29.53,SW,228,0.0,0.0,73,0.00,CLR,,0.00,WeatherDisplay:10.37,2013-07-18 07:22:00,
2013-07-18 00:27:00,59.5,50.9,29.53,SW,228,0.0,0.0,73,0.00,CLR,,0.00,WeatherDisplay:10.37,2013-07-18 07:27:00,
2013-07-18 00:32:00,59.5,51.2,29.53,SW,228,0.0,0.0,74,0.00,CLR,,0.00,WeatherDisplay:10.37,2013-07-18 07:32:00,
2013-07-18 00:37:00,59.4,51.1,29.53,SW,228,0.0,0.0,74,0.00,CLR,,0.00,WeatherDisplay:10.37,2013-07-18 07:37:00,
2013-07-18 00:42:00,59.4,51.1,29.53,SW,228,0.0,0.0,74,0.00,CLR,,0.00,WeatherDisplay:10.37,2013-07-18 07:42:00,
2013-07-18 00:47:00,59.4,51.1,29.53,SW,228,0.0,0.0,74,0.00,CLR,,0.00,WeatherDisplay:10.37,2013-07-18 07:47:00,
2013-07-18 00:52:00,59.4,51.1,29.53,SW,228,0.0,0.0,74,0.00,CLR,,0.00,WeatherDisplay:10.37,2013-07-18 07:52:00,
2013-07-18 00:57:00,59.2,51.3,29.53,SW,228,0.0,0.0,75,0.00,CLR,,0.00,WeatherDisplay:10.37,2013-07-18 07:57:00,
2013-07-18 01:02:00,59.2,51.3,29.53,SW,228,0.0,0.0,75,0.00,CLR,,0.00,WeatherDisplay:10.37,2013-07-18 08:02:00,
2013-07-18 01:07:00,59.2,51.6,29.53,SW,228,0.0,0.0,76,0.00,CLR,,0.00,WeatherDisplay:10.37,2013-07-18 08:07:00,
2013-07-18 01:12:00,59.2,51.6,29.53,SW,228,0.0,0.0,76,0.00,CLR,,0.00,WeatherDisplay:10.37,2013-07-18 08:12:00,
2013-07-18 01:17:00,59.0,51.4,29.53,SW,228,0.0,0.0,76,0.00,CLR,,0.00,WeatherDisplay:10.37,2013-07-18 08:17:00,
2013-07-18 01:22:00,59.0,51.8,29.53,SW,228,0.0,0.0,77,0.00,CLR,,0.00,WeatherDisplay:10.37,2013-07-18 08:22:00,
2013-07-18 01:27:00,59.0,51.8,29.53,SW,228,0.0,0.0,77,0.00,CLR,,0.00,WeatherDisplay:10.37,2013-07-18 08:27:00,
2013-07-18 01:32:00,59.0,51.8,29.53,SW,228,0.0,0.0,77,0.00,CLR,,0.00,WeatherDisplay:10.37,2013-07-18 08:32:00,
2013-07-18 01:37:00,59.0,51.8,29.53,SW,228,0.0,0.0,77,0.00,CLR,,0.00,WeatherDisplay:10.37,2013-07-18 08:37:00,
2013-07-18 01:42:00,59.0,51.8,29.53,SW,228,0.0,0.0,77,0.00,CLR,,0.00,WeatherDisplay:10.37,2013-07-18 08:42:00,
2013-07-18 01:47:00,59.0,52.1,29.53,SW,228,0.0,0.0,78,0.00,CLR,,0.00,WeatherDisplay:10.37,2013-07-18 08:47:00,
2013-07-18 01:52:00,59.0,52.1,29.53,SW,228,0.0,0.0,78,0.00,CLR,,0.00,WeatherDisplay:10.37,2013-07-18 08:52:00,
2013-07-18 01:57:00,59.0,52.1,29.53,SW,228,0.0,0.0,78,0.00,CLR,,0.00,WeatherDisplay:10.37,2013-07-18 08:57:00,
2013-07-18 02:02:00,58.8,52.3,29.53,SW,228,0.0,0.0,79,0.00,CLR,,0.00,WeatherDisplay:10.37,2013-07-18 09:02:00,
2013-07-18 02:07:00,58.8,52.7,29.56,SW,228,0.0,0.0,80,0.00,CLR,,0.00,WeatherDisplay:10.37,2013-07-18 09:07:00,
2013-07-18 02:12:00,58.8,52.7,29.56,SW,228,0.0,0.0,80,0.00,CLR,,0.00,WeatherDisplay:10.37,2013-07-18 09:12:00,
2013-07-18 02:17:00,58.8,52.7,29.56,SW,228,0.0,0.0,80,0.00,CLR,,0.00,WeatherDisplay:10.37,2013-07-18 09:17:00,
2013-07-18 02:22:00,58.8,52.7,29.53,SW,228,0.0,0.0,80,0.00,CLR,,0.00,WeatherDisplay:10.37,2013-07-18 09:22:00,
2013-07-18 02:27:00,58.8,52.7,29.53,SW,228,0.0,0.0,80,0.00,CLR,,0.00,WeatherDisplay:10.37,2013-07-18 09:27:00,
2013-07-18 02:32:00,58.8,52.7,29.53,SW,228,0.0,0.0,80,0.00,CLR,,0.00,WeatherDisplay:10.37,2013-07-18 09:32:00,
2013-07-18 02:37:00,58.6,52.5,29.56,SW,228,0.0,0.0,80,0.00,CLR,,0.00,WeatherDisplay:10.37,2013-07-18 09:37:00,
2013-07-18 02:42:00,58.6,52.5,29.56,SW,228,0.0,0.0,80,0.00,CLR,,0.00,WeatherDisplay:10.37,2013-07-18 09:42:00,
2013-07-18 02:47:00,58.6,52.5,29.56,SW,228,0.0,0.0,80,0.00,CLR,,0.00,WeatherDisplay:10.37,2013-07-18 09:47:00,
2013-07-18 02:52:00,58.6,52.8,29.56,SW,228,0.0,0.0,81,0.00,CLR,,0.00,WeatherDisplay:10.37,2013-07-18 09:52:00,
2013-07-18 02:57:00,58.8,53.0,29.56,SW,228,0.0,0.0,81,0.00,CLR,,0.00,WeatherDisplay:10.37,2013-07-18 09:57:00,
2013-07-18 03:02:00,58.8,53.0,29.56,SW,228,0.0,0.0,81,0.00,CLR,,0.00,WeatherDisplay:10.37,2013-07-18 10:02:00,
2013-07-18 03:07:00,58.8,53.0,29.56,SW,228,0.0,0.0,81,0.00,CLR,,0.00,WeatherDisplay:10.37,2013-07-18 10:07:00,
2013-07-18 03:12:00,58.8,53.0,29.56,SW,228,0.0,0.0,81,0.00,CLR,,0.00,WeatherDisplay:10.37,2013-07-18 10:12:00,
2013-07-18 03:17:00,58.8,53.0,29.56,SW,228,0.0,0.0,81,0.00,CLR,,0.00,WeatherDisplay:10.37,2013-07-18 10:17:00,
2013-07-18 03:22:00,58.8,53.0,29.56,SW,228,0.0,0.0,81,0.00,CLR,,0.00,WeatherDisplay:10.37,2013-07-18 10:22:00,
2013-07-18 03:27:00,58.8,53.0,29.56,SW,228,0.0,0.0,81,0.00,CLR,,0.00,WeatherDisplay:10.37,2013-07-18 10:27:00,
2013-07-18 03:32:00,58.8,53.0,29.56,SW,228,0.0,0.0,81,0.00,CLR,,0.00,WeatherDisplay:10.37,2013-07-18 10:32:00,
2013-07-18 03:37:00,58.8,53.0,29.56,SW,228,0.0,0.0,81,0.00,CLR,,0.00,WeatherDisplay:10.37,2013-07-18 10:37:00,
2013-07-18 03:42:00,58.8,53.0,29.56,SW,228,0.0,0.0,81,0.00,CLR,,0.00,WeatherDisplay:10.37,2013-07-18 10:42:00,
2013-07-18 03:47:00,58.8,53.3,29.56,SW,228,0.0,0.0,82,0.00,CLR,,0.00,WeatherDisplay:10.37,2013-07-18 10:47:00,
2013-07-18 03:52:00,58.8,53.3,29.56,SW,228,0.0,0.0,82,0.00,CLR,,0.00,WeatherDisplay:10.37,2013-07-18 10:52:00,
2013-07-18 03:57:00,58.8,53.3,29.56,SW,228,0.0,0.0,82,0.00,CLR,,0.00,WeatherDisplay:10.37,2013-07-18 10:57:00,
2013-07-18 04:02:00,58.8,53.3,29.56,SW,228,0.0,0.0,82,0.00,CLR,,0.00,WeatherDisplay:10.37,2013-07-18 11:02:00,
2013-07-18 04:07:00,58.8,53.3,29.56,SW,228,0.0,0.0,82,0.00,CLR,,0.00,WeatherDisplay:10.37,2013-07-18 11:07:00,
2013-07-18 04:12:00,58.8,53.3,29.56,SW,228,0.0,0.0,82,0.00,CLR,,0.00,WeatherDisplay:10.37,2013-07-18 11:12:00,
2013-07-18 04:17:00,58.8,53.3,29.56,SW,228,0.0,0.0,82,0.00,CLR,,0.00,WeatherDisplay:10.37,2013-07-18 11:17:00,
2013-07-18 04:22:00,58.8,53.3,29.56,SW,228,0.0,0.0,82,0.00,CLR,,0.00,WeatherDisplay:10.37,2013-07-18 11:22:00,
2013-07-18 04:27:00,58.8,53.0,29.56,SW,228,0.0,0.0,81,0.00,CLR,,0.00,WeatherDisplay:10.37,2013-07-18 11:27:00,
2013-07-18 04:32:00,58.8,53.0,29.56,SW,228,0.0,0.0,81,0.00,CLR,,0.00,WeatherDisplay:10.37,2013-07-18 11:32:00,
2013-07-18 04:37:00,58.8,53.0,29.56,SW,228,0.0,0.0,81,0.00,CLR,,0.00,WeatherDisplay:10.37,2013-07-18 11:37:00,
2013-07-18 04:42:00,58.8,53.0,29.56,SW,228,0.0,0.0,81,0.00,CLR,,0.00,WeatherDisplay:10.37,2013-07-18 11:42:00,
2013-07-18 04:48:00,58.8,53.0,29.56,SW,228,0.0,0.0,81,0.00,CLR,,0.00,WeatherDisplay:10.37,2013-07-18 11:48:00,
2013-07-18 04:53:00,58.8,53.0,29.56,SW,228,0.0,0.0,81,0.00,CLR,,0.00,WeatherDisplay:10.37,2013-07-18 11:53:00,
2013-07-18 04:58:00,58.8,53.0,29.56,SW,228,0.0,0.0,81,0.00,CLR,,0.00,WeatherDisplay:10.37,2013-07-18 11:58:00,
2013-07-18 05:03:00,58.8,53.0,29.56,SW,228,0.0,0.0,81,0.00,CLR,,0.00,WeatherDisplay:10.37,2013-07-18 12:03:00,
2013-07-18 05:08:00,58.8,53.0,29.56,SW,228,0.0,0.0,81,0.00,CLR,,0.00,WeatherDisplay:10.37,2013-07-18 12:08:00,
2013-07-18 05:13:00,58.8,53.0,29.56,SW,228,0.0,0.0,81,0.00,CLR,,0.00,WeatherDisplay:10.37,2013-07-18 12:13:00,
2013-07-18 05:18:00,58.8,53.0,29.56,SW,228,0.0,0.0,81,0.00,CLR,,0.00,WeatherDisplay:10.37,2013-07-18 12:18:00,
2013-07-18 05:23:00,58.8,53.0,29.56,SW,228,0.0,0.0,81,0.00,CLR,,0.00,WeatherDisplay:10.37,2013-07-18 12:23:00,
2013-07-18 05:28:00,58.8,53.0,29.56,SW,228,0.0,0.0,81,0.00,CLR,,0.00,WeatherDisplay:10.37,2013-07-18 12:28:00,
2013-07-18 05:33:00,58.8,53.0,29.56,NNW,345,2.3,0.0,81,0.00,CLR,,0.00,WeatherDisplay:10.37,2013-07-18 12:33:00,
2013-07-18 05:38:00,58.8,53.0,29.56,NNW,345,0.0,0.0,81,0.00,CLR,,0.00,WeatherDisplay:10.37,2013-07-18 12:38:00,
2013-07-18 05:43:00,58.8,53.3,29.56,NNW,345,0.0,0.0,82,0.00,CLR,,0.00,WeatherDisplay:10.37,2013-07-18 12:43:00,
2013-07-18 05:48:00,59.0,53.2,29.56,WNW,303,3.5,0.0,81,0.00,CLR,,0.00,WeatherDisplay:10.37,2013-07-18 12:48:00,
2013-07-18 05:53:00,58.8,53.3,29.56,NNW,348,2.3,0.0,82,0.00,CLR,,0.00,WeatherDisplay:10.37,2013-07-18 12:53:00,
2013-07-18 05:58:00,58.8,53.3,29.56,North,353,3.5,3.5,82,0.00,CLR,,0.00,WeatherDisplay:10.37,2013-07-18 12:58:00,
2013-07-18 06:03:00,58.8,53.3,29.56,NW,326,3.5,0.0,82,0.00,CLR,,0.00,WeatherDisplay:10.37,2013-07-18 13:03:00,
2013-07-18 06:08:00,58.8,53.0,29.56,WNW,293,0.0,0.0,81,0.00,CLR,,0.00,WeatherDisplay:10.37,2013-07-18 13:08:00,
2013-07-18 06:13:00,58.8,53.0,29.56,NNW,342,3.5,0.0,81,0.00,CLR,,0.00,WeatherDisplay:10.37,2013-07-18 13:13:00,
2013-07-18 06:18:00,58.8,53.0,29.56,NNW,348,3.5,3.5,81,0.00,CLR,,0.00,WeatherDisplay:10.37,2013-07-18 13:18:00,
2013-07-18 06:23:00,58.8,52.7,29.56,ENE,76,0.0,0.0,80,0.00,CLR,,0.00,WeatherDisplay:10.37,2013-07-18 13:23:00,
2013-07-18 06:28:00,58.8,52.7,29.56,NNW,334,3.5,3.5,80,0.00,CLR,,0.00,WeatherDisplay:10.37,2013-07-18 13:28:00,
2013-07-18 06:33:00,58.8,52.7,29.56,NNE,31,2.3,0.0,80,0.00,CLR,,0.00,WeatherDisplay:10.37,2013-07-18 13:33:00,
2013-07-18 06:38:00,58.8,52.7,29.56,North,357,0.0,0.0,80,0.00,CLR,,0.00,WeatherDisplay:10.37,2013-07-18 13:38:00,
2013-07-18 06:43:00,58.8,52.7,29.56,NW,310,2.7,0.0,80,0.00,CLR,,0.00,WeatherDisplay:10.37,2013-07-18 13:43:00,
2013-07-18 06:48:00,58.8,52.7,29.56,North,9,0.0,0.0,80,0.00,CLR,,0.00,WeatherDisplay:10.37,2013-07-18 13:48:00,
2013-07-18 06:53:00,58.8,52.7,29.56,NNW,327,3.5,0.0,80,0.00,CLR,,0.00,WeatherDisplay:10.37,2013-07-18 13:53:00,
2013-07-18 06:58:00,58.8,52.7,29.56,NNE,16,3.5,3.5,80,0.00,CLR,,0.00,WeatherDisplay:10.37,2013-07-18 13:58:00,
2013-07-18 07:03:00,58.8,52.7,29.56,North,5,0.0,0.0,80,0.00,CLR,,0.00,WeatherDisplay:10.37,2013-07-18 14:03:00,
2013-07-18 07:08:00,59.0,52.5,29.56,ENE,62,0.0,0.0,79,0.00,CLR,,0.00,WeatherDisplay:10.37,2013-07-18 14:08:00,
2013-07-18 07:13:00,59.0,52.5,29.56,North,349,0.0,0.0,79,0.00,CLR,,0.00,WeatherDisplay:10.37,2013-07-18 14:13:00,
2013-07-18 07:18:00,59.0,52.5,29.56,North,353,0.0,0.0,79,0.00,CLR,,0.00,WeatherDisplay:10.37,2013-07-18 14:18:00,
2013-07-18 07:23:00,59.2,52.7,29.56,North,353,0.0,0.0,79,0.00,CLR,,0.00,WeatherDisplay:10.37,2013-07-18 14:23:00,
2013-07-18 07:28:00,59.4,52.5,29.56,North,353,0.0,0.0,78,0.00,CLR,,0.00,WeatherDisplay:10.37,2013-07-18 14:28:00,
2013-07-18 07:33:00,59.5,52.3,29.56,North,353,0.0,0.0,77,0.00,CLR,,0.00,WeatherDisplay:10.37,2013-07-18 14:33:00,
2013-07-18 07:38:00,59.9,52.7,29.56,North,353,0.0,0.0,77,0.00,CLR,,0.00,WeatherDisplay:10.37,2013-07-18 14:38:00,
2013-07-18 07:43:00,59.9,52.3,29.56,North,353,0.0,0.0,76,0.00,CLR,,0.00,WeatherDisplay:10.37,2013-07-18 14:43:00,
2013-07-18 07:48:00,59.9,52.0,29.56,North,353,0.0,0.0,75,0.00,CLR,,0.00,WeatherDisplay:10.37,2013-07-18 14:48:00,
2013-07-18 07:53:00,60.1,52.1,29.56,North,353,0.0,0.0,75,0.00,CLR,,0.00,WeatherDisplay:10.37,2013-07-18 14:53:00,
2013-07-18 07:58:00,60.1,51.8,29.56,North,353,0.0,0.0,74,0.00,CLR,,0.00,WeatherDisplay:10.37,2013-07-18 14:58:00,
2013-07-18 08:03:00,60.3,51.9,29.56,North,353,0.0,0.0,74,0.00,CLR,,0.00,WeatherDisplay:10.37,2013-07-18 15:03:00,
2013-07-18 08:08:00,60.4,52.1,29.56,North,353,0.0,0.0,74,0.00,CLR,,0.00,WeatherDisplay:10.37,2013-07-18 15:08:00,
2013-07-18 08:13:00,60.4,51.7,29.56,North,1,2.3,0.0,73,0.00,CLR,,0.00,WeatherDisplay:10.37,2013-07-18 15:13:00,
2013-07-18 08:18:00,60.6,51.9,29.56,North,1,0.0,0.0,73,0.00,CLR,,0.00,WeatherDisplay:10.37,2013-07-18 15:18:00,
2013-07-18 08:23:00,60.6,51.9,29.56,North,1,2.3,0.0,73,0.00,CLR,,0.00,WeatherDisplay:10.37,2013-07-18 15:23:00,
2013-07-18 08:28:00,61.0,51.9,29.56,NNW,329,3.6,0.0,72,0.00,CLR,,0.00,WeatherDisplay:10.37,2013-07-18 15:28:00,
2013-07-18 08:33:00,61.0,51.9,29.56,NE,48,0.0,0.0,72,0.00,CLR,,0.00,WeatherDisplay:10.37,2013-07-18 15:33:00,
2013-07-18 08:38:00,60.8,51.7,29.56,North,7,0.0,0.0,72,0.00,CLR,,0.00,WeatherDisplay:10.37,2013-07-18 15:38:00,
2013-07-18 08:43:00,60.6,51.5,29.56,North,1,0.0,0.0,72,0.00,CLR,,0.00,WeatherDisplay:10.37,2013-07-18 15:43:00,
2013-07-18 08:48:00,60.8,51.7,29.59,West,264,0.0,0.0,72,0.00,CLR,,0.00,WeatherDisplay:10.37,2013-07-18 15:48:00,
2013-07-18 08:53:00,60.8,51.7,29.59,WNW,299,2.7,2.7,72,0.00,CLR,,0.00,WeatherDisplay:10.37,2013-07-18 15:53:00,
2013-07-18 08:58:00,61.0,51.9,29.59,NW,310,0.0,0.0,72,0.00,CLR,,0.00,WeatherDisplay:10.37,2013-07-18 15:58:00,
2013-07-18 09:03:00,61.0,51.5,29.59,WNW,295,3.5,0.0,71,0.00,CLR,,0.00,WeatherDisplay:10.37,2013-07-18 16:03:00,
2013-07-18 09:08:00,61.2,51.7,29.59,North,350,4.6,4.6,71,0.00,CLR,,0.00,WeatherDisplay:10.37,2013-07-18 16:08:00,
2013-07-18 09:13:00,61.3,51.9,29.59,NNW,328,2.3,0.0,71,0.00,CLR,,0.00,WeatherDisplay:10.37,2013-07-18 16:13:00,
2013-07-18 09:18:00,61.5,52.0,29.56,NNW,330,2.7,0.0,71,0.00,CLR,,0.00,WeatherDisplay:10.37,2013-07-18 16:18:00,
2013-07-18 09:23:00,61.7,52.2,29.56,ESE,116,2.3,2.3,71,0.00,CLR,,0.00,WeatherDisplay:10.37,2013-07-18 16:23:00,
2013-07-18 09:28:00,61.7,52.2,29.56,NNE,18,2.3,0.0,71,0.00,CLR,,0.00,WeatherDisplay:10.37,2013-07-18 16:28:00,
2013-07-18 09:33:00,61.9,52.4,29.56,NW,308,0.0,0.0,71,0.00,CLR,,0.00,WeatherDisplay:10.37,2013-07-18 16:33:00,
2013-07-18 09:38:00,61.9,52.0,29.56,NW,307,2.2,0.0,70,0.00,CLR,,0.00,WeatherDisplay:10.37,2013-07-18 16:38:00,
2013-07-18 09:43:00,62.1,52.2,29.56,North,353,2.2,0.0,70,0.00,CLR,,0.00,WeatherDisplay:10.37,2013-07-18 16:43:00,
2013-07-18 09:48:00,62.2,52.3,29.56,ESE,108,2.3,0.0,70,0.00,CLR,,0.00,WeatherDisplay:10.37,2013-07-18 16:48:00,
2013-07-18 09:53:00,62.6,52.7,29.56,WNW,298,0.0,0.0,70,0.00,CLR,,0.00,WeatherDisplay:10.37,2013-07-18 16:53:00,
2013-07-18 09:58:00,62.8,52.8,29.56,NW,320,5.8,5.8,70,0.00,CLR,,0.00,WeatherDisplay:10.37,2013-07-18 16:58:00,
2013-07-18 10:03:00,63.0,52.6,29.56,ENE,70,2.3,0.0,69,0.00,CLR,,0.00,WeatherDisplay:10.37,2013-07-18 17:03:00,
2013-07-18 10:09:00,63.0,52.6,29.56,WNW,283,2.7,0.0,69,0.00,CLR,,0.00,WeatherDisplay:10.37,2013-07-18 17:09:00,
2013-07-18 10:14:00,63.1,52.8,29.56,NW,322,0.0,0.0,69,0.00,CLR,,0.00,WeatherDisplay:10.37,2013-07-18 17:14:00,
2013-07-18 10:19:00,63.3,53.0,29.56,NW,311,3.5,3.5,69,0.00,CLR,,0.00,WeatherDisplay:10.37,2013-07-18 17:19:00,
2013-07-18 10:24:00,63.7,53.3,29.56,NW,307,2.3,0.0,69,0.00,CLR,,0.00,WeatherDisplay:10.37,2013-07-18 17:24:00,
2013-07-18 10:29:00,63.7,52.9,29.56,East,98,0.0,0.0,68,0.00,CLR,,0.00,WeatherDisplay:10.37,2013-07-18 17:29:00,
2013-07-18 10:34:00,64.0,53.3,29.56,SSE,166,3.5,0.0,68,0.00,CLR,,0.00,WeatherDisplay:10.37,2013-07-18 17:34:00,
2013-07-18 10:39:00,64.2,53.4,29.56,WNW,303,2.2,2.2,68,0.00,CLR,,0.00,WeatherDisplay:10.37,2013-07-18 17:39:00,
2013-07-18 10:44:00,64.4,53.6,29.56,North,1,3.5,3.5,68,0.00,CLR,,0.00,WeatherDisplay:10.37,2013-07-18 17:44:00,
2013-07-18 10:49:00,64.8,53.9,29.56,ENE,64,0.0,0.0,68,0.00,CLR,,0.00,WeatherDisplay:10.37,2013-07-18 17:49:00,
2013-07-18 10:54:00,64.8,53.5,29.56,WNW,294,2.3,0.0,67,0.00,CLR,,0.00,WeatherDisplay:10.37,2013-07-18 17:54:00,
2013-07-18 10:59:00,64.9,53.7,29.56,North,353,3.5,0.0,67,0.00,CLR,,0.00,WeatherDisplay:10.37,2013-07-18 17:59:00,
2013-07-18 11:04:00,65.1,53.5,29.56,NW,323,0.0,0.0,66,0.00,CLR,,0.00,WeatherDisplay:10.37,2013-07-18 18:04:00,
2013-07-18 11:09:00,65.5,54.2,29.56,East,99,0.0,0.0,67,0.00,CLR,,0.00,WeatherDisplay:10.37,2013-07-18 18:09:00,
2013-07-18 11:14:00,65.7,54.4,29.56,East,93,0.0,0.0,67,0.00,CLR,,0.00,WeatherDisplay:10.37,2013-07-18 18:14:00,
2013-07-18 11:19:00,65.8,54.6,29.56,NE,49,0.0,0.0,67,0.00,CLR,,0.00,WeatherDisplay:10.37,2013-07-18 18:19:00,
2013-07-18 11:24:00,66.0,53.1,29.56,SW,233,2.3,0.0,63,0.00,CLR,,0.00,WeatherDisplay:10.37,2013-07-18 18:24:00,
2013-07-18 11:29:00,66.4,54.3,29.56,South,190,0.0,0.0,65,0.00,CLR,,0.00,WeatherDisplay:10.37,2013-07-18 18:29:00,
2013-07-18 11:34:00,66.6,53.6,29.56,SSW,209,2.3,0.0,63,0.00,CLR,,0.00,WeatherDisplay:10.37,2013-07-18 18:34:00,
2013-07-18 11:39:00,66.7,54.2,29.56,South,180,3.6,0.0,64,0.00,CLR,,0.00,WeatherDisplay:10.37,2013-07-18 18:39:00,
2013-07-18 11:44:00,66.9,55.6,29.56,ESE,114,0.0,0.0,67,0.00,CLR,,0.00,WeatherDisplay:10.37,2013-07-18 18:44:00,
2013-07-18 11:49:00,67.1,54.5,29.56,ESE,114,0.0,0.0,64,0.00,CLR,,0.00,WeatherDisplay:10.37,2013-07-18 18:49:00,
2013-07-18 11:54:00,67.1,54.1,29.56,SSE,156,2.3,0.0,63,0.00,CLR,,0.00,WeatherDisplay:10.37,2013-07-18 18:54:00,
2013-07-18 11:59:00,67.5,54.9,29.56,NW,325,3.5,0.0,64,0.00,CLR,,0.00,WeatherDisplay:10.37,2013-07-18 18:59:00,
2013-07-18 12:04:00,67.6,55.0,29.56,NW,322,3.5,3.5,64,0.00,CLR,,0.00,WeatherDisplay:10.37,2013-07-18 19:04:00,
2013-07-18 12:09:00,67.8,55.2,29.56,NNE,32,3.5,3.5,64,0.00,CLR,,0.00,WeatherDisplay:10.37,2013-07-18 19:09:00,
2013-07-18 12:14:00,68.0,54.9,29.56,WSW,252,2.3,0.0,63,0.00,CLR,,0.00,WeatherDisplay:10.37,2013-07-18 19:14:00,
2013-07-18 12:19:00,68.2,54.7,29.56,ENE,64,2.3,0.0,62,0.00,CLR,,0.00,WeatherDisplay:10.37,2013-07-18 19:19:00,
2013-07-18 12:24:00,68.4,54.4,29.56,East,95,0.0,0.0,61,0.00,CLR,,0.00,WeatherDisplay:10.37,2013-07-18 19:24:00,
2013-07-18 12:29:00,68.5,54.6,29.56,SE,129,0.0,0.0,61,0.00,CLR,,0.00,WeatherDisplay:10.37,2013-07-18 19:29:00,
2013-07-18 12:34:00,68.5,54.6,29.56,West,271,0.0,0.0,61,0.00,CLR,,0.00,WeatherDisplay:10.37,2013-07-18 19:34:00,
2013-07-18 12:39:00,68.7,54.3,29.56,South,182,3.5,3.5,60,0.00,CLR,,0.00,WeatherDisplay:10.37,2013-07-18 19:39:00,
2013-07-18 12:44:00,68.9,54.4,29.56,SW,214,3.5,3.5,60,0.00,CLR,,0.00,WeatherDisplay:10.37,2013-07-18 19:44:00,
2013-07-18 12:49:00,68.7,53.8,29.56,West,272,2.3,0.0,59,0.00,CLR,,0.00,WeatherDisplay:10.37,2013-07-18 19:49:00,
2013-07-18 12:54:00,68.7,54.3,29.56,SE,144,2.3,0.0,60,0.00,CLR,,0.00,WeatherDisplay:10.37,2013-07-18 19:54:00,
2013-07-18 12:59:00,68.7,54.7,29.56,SSW,205,2.3,0.0,61,0.00,CLR,,0.00,WeatherDisplay:10.37,2013-07-18 19:59:00,
2013-07-18 13:04:00,68.7,54.7,29.56,SSW,206,0.0,0.0,61,0.00,CLR,,0.00,WeatherDisplay:10.37,2013-07-18 20:04:00,
2013-07-18 13:09:00,68.7,54.7,29.56,SW,221,3.5,3.5,61,0.00,CLR,,0.00,WeatherDisplay:10.37,2013-07-18 20:09:00,
2013-07-18 13:14:00,68.9,54.9,29.56,NW,311,2.7,0.0,61,0.00,CLR,,0.00,WeatherDisplay:10.37,2013-07-18 20:14:00,
2013-07-18 13:19:00,68.9,54.9,29.56,WNW,303,2.3,0.0,61,0.00,CLR,,0.00,WeatherDisplay:10.37,2013-07-18 20:19:00,
2013-07-18 13:24:00,69.3,55.2,29.56,SSW,197,0.0,0.0,61,0.00,CLR,,0.00,WeatherDisplay:10.37,2013-07-18 20:24:00,
2013-07-18 13:29:00,69.3,54.8,29.56,South,176,2.3,0.0,60,0.00,CLR,,0.00,WeatherDisplay:10.37,2013-07-18 20:29:00,
2013-07-18 13:34:00,69.4,55.4,29.53,SSE,166,0.0,0.0,61,0.00,CLR,,0.00,WeatherDisplay:10.37,2013-07-18 20:34:00,
2013-07-18 13:39:00,69.6,55.1,29.53,SSE,162,3.6,3.6,60,0.00,CLR,,0.00,WeatherDisplay:10.37,2013-07-18 20:39:00,
2013-07-18 13:44:00,69.6,55.1,29.53,SSW,204,3.5,3.5,60,0.00,CLR,,0.00,WeatherDisplay:10.37,2013-07-18 20:44:00,
2013-07-18 13:49:00,69.8,55.3,29.53,NNW,333,3.1,0.0,60,0.00,CLR,,0.00,WeatherDisplay:10.37,2013-07-18 20:49:00,
2013-07-18 13:54:00,69.8,55.3,29.53,NE,55,0.0,0.0,60,0.00,CLR,,0.00,WeatherDisplay:10.37,2013-07-18 20:54:00,
2013-07-18 13:59:00,70.0,55.0,29.53,South,181,0.0,0.0,59,0.00,CLR,,0.00,WeatherDisplay:10.37,2013-07-18 20:59:00,
2013-07-18 14:00:00,70.0,55.5,29.53,SE,125,3.5,0.0,60,0.00,CLR,,0.00,WeatherDisplay:10.37,2013-07-18 21:00:00,
2013-07-18 14:05:00,70.3,55.8,29.53,South,179,3.5,3.5,60,0.00,CLR,,0.00,WeatherDisplay:10.37,2013-07-18 21:05:00,
2013-07-18 14:10:00,70.9,56.3,29.53,South,184,3.5,3.5,60,0.00,CLR,,0.00,WeatherDisplay:10.37,2013-07-18 21:10:00,
2013-07-18 14:15:00,70.9,55.8,29.53,WSW,254,2.3,0.0,59,0.00,CLR,,0.00,WeatherDisplay:10.37,2013-07-18 21:15:00,
2013-07-18 14:20:00,70.9,55.4,29.53,North,353,0.0,0.0,58,0.00,CLR,,0.00,WeatherDisplay:10.37,2013-07-18 21:20:00,
2013-07-18 14:25:00,70.7,55.7,29.53,NW,325,4.9,4.9,59,0.00,CLR,,0.00,WeatherDisplay:10.37,2013-07-18 21:25:00,
2013-07-18 14:30:00,70.7,55.7,29.53,East,94,3.5,3.5,59,0.00,CLR,,0.00,WeatherDisplay:10.37,2013-07-18 21:30:00,
2013-07-18 14:35:00,70.7,55.7,29.53,ENE,65,0.0,0.0,59,0.00,CLR,,0.00,WeatherDisplay:10.37,2013-07-18 21:35:00,
2013-07-18 14:40:00,71.1,56.0,29.53,ENE,58,2.3,2.3,59,0.00,CLR,,0.00,WeatherDisplay:10.37,2013-07-18 21:40:00,
2013-07-18 14:45:00,71.4,56.8,29.53,NW,304,0.0,0.0,60,0.00,CLR,,0.00,WeatherDisplay:10.37,2013-07-18 21:45:00,
2013-07-18 14:50:00,72.3,57.2,29.53,SE,137,3.5,3.5,59,0.00,CLR,,0.00,WeatherDisplay:10.37,2013-07-18 21:50:00,
2013-07-18 14:55:00,72.7,57.0,29.53,ENE,65,2.3,2.3,58,0.00,CLR,,0.00,WeatherDisplay:10.37,2013-07-18 21:55:00,
2013-07-18 15:00:00,72.9,56.7,29.53,NW,323,3.5,0.0,57,0.00,CLR,,0.00,WeatherDisplay:10.37,2013-07-18 22:00:00,
2013-07-18 15:05:00,72.9,57.2,29.53,East,83,3.1,0.0,58,0.00,CLR,,0.00,WeatherDisplay:10.37,2013-07-18 22:05:00,
2013-07-18 15:10:00,73.2,57.6,29.53,SSW,193,3.5,0.0,58,0.00,CLR,,0.00,WeatherDisplay:10.37,2013-07-18 22:10:00,
2013-07-18 15:15:00,73.8,57.6,29.53,North,353,4.0,4.0,57,0.00,CLR,,0.00,WeatherDisplay:10.37,2013-07-18 22:15:00,
2013-07-18 15:20:00,74.1,57.9,29.53,WNW,301,0.0,0.0,57,0.00,CLR,,0.00,WeatherDisplay:10.37,2013-07-18 22:20:00,
2013-07-18 15:25:00,74.5,57.8,29.53,NW,310,3.5,3.5,56,0.00,CLR,,0.00,WeatherDisplay:10.37,2013-07-18 22:25:00,
2013-07-18 15:30:00,75.0,58.3,29.53,North,353,3.6,3.6,56,0.00,CLR,,0.00,WeatherDisplay:10.37,2013-07-18 22:30:00,
2013-07-18 15:35:00,75.2,58.4,29.50,North,1,3.5,0.0,56,0.00,CLR,,0.00,WeatherDisplay:10.37,2013-07-18 22:35:00,
2013-07-18 15:40:00,75.4,58.6,29.50,North,9,0.0,0.0,56,0.00,CLR,,0.00,WeatherDisplay:10.37,2013-07-18 22:40:00,
2013-07-18 15:45:00,74.8,58.1,29.50,North,353,3.5,3.5,56,0.00,CLR,,0.00,WeatherDisplay:10.37,2013-07-18 22:45:00,
2013-07-18 15:50:00,75.2,58.4,29.50,East,95,2.3,0.0,56,0.00,CLR,,0.00,WeatherDisplay:10.37,2013-07-18 22:50:00,
2013-07-18 15:55:00,75.7,58.9,29.50,North,349,3.5,3.5,56,0.00,CLR,,0.00,WeatherDisplay:10.37,2013-07-18 22:55:00,
2013-07-18 16:00:00,75.9,59.1,29.50,South,171,3.6,0.0,56,0.00,CLR,,0.00,WeatherDisplay:10.37,2013-07-18 23:00:00,
2013-07-18 16:05:00,76.6,59.8,29.50,South,169,3.5,4.0,56,0.00,CLR,,0.00,WeatherDisplay:10.37,2013-07-18 23:05:00,
2013-07-18 16:10:00,77.4,60.4,29.50,SSW,200,5.8,5.8,56,0.00,CLR,,0.00,WeatherDisplay:10.37,2013-07-18 23:10:00,
2013-07-18 16:15:00,78.1,60.6,29.50,SSW,213,5.8,5.8,55,0.00,CLR,,0.00,WeatherDisplay:10.37,2013-07-18 23:15:00,
2013-07-18 16:20:00,78.6,61.1,29.50,NNW,342,3.5,4.0,55,0.00,CLR,,0.00,WeatherDisplay:10.37,2013-07-18 23:20:00,
2013-07-18 16:26:00,78.8,61.3,29.50,South,190,2.3,2.3,55,0.00,CLR,,0.00,WeatherDisplay:10.37,2013-07-18 23:26:00,
2013-07-18 16:31:00,78.8,61.3,29.50,SSW,200,3.5,3.6,55,0.00,CLR,,0.00,WeatherDisplay:10.37,2013-07-18 23:31:00,
2013-07-18 16:36:00,78.4,60.9,29.50,North,357,3.5,0.0,55,0.00,CLR,,0.00,WeatherDisplay:10.37,2013-07-18 23:36:00,
2013-07-18 16:41:00,78.6,60.1,29.50,South,179,3.5,3.6,53,0.00,CLR,,0.00,WeatherDisplay:10.37,2013-07-18 23:41:00,
2013-07-18 16:46:00,78.3,60.8,29.50,ESE,105,3.5,3.5,55,0.00,CLR,,0.00,WeatherDisplay:10.37,2013-07-18 23:46:00,
2013-07-18 16:51:00,77.7,59.2,29.50,NNW,344,3.5,0.0,53,0.00,CLR,,0.00,WeatherDisplay:10.37,2013-07-18 23:51:00,
2013-07-18 16:56:00,77.7,60.3,29.50,SSW,197,3.5,3.5,55,0.00,CLR,,0.00,WeatherDisplay:10.37,2013-07-18 23:56:00,
2013-07-18 17:01:00,78.1,60.6,29.50,South,169,3.5,0.0,55,0.00,CLR,,0.00,WeatherDisplay:10.37,2013-07-19 00:01:00,
2013-07-18 17:06:00,78.3,60.8,29.47,South,174,3.5,3.5,55,0.00,CLR,,0.00,WeatherDisplay:10.37,2013-07-19 00:06:00,
2013-07-18 17:11:00,78.4,60.9,29.47,North,3,0.0,0.0,55,0.00,CLR,,0.00,WeatherDisplay:10.37,2013-07-19 00:11:00,
2013-07-18 17:16:00,78.1,60.6,29.47,NNW,342,3.5,0.0,55,0.00,CLR,,0.00,WeatherDisplay:10.37,2013-07-19 00:16:00,
2013-07-18 17:21:00,77.7,60.3,29.47,North,353,3.5,0.0,55,0.00,CLR,,0.00,WeatherDisplay:10.37,2013-07-19 00:21:00,
2013-07-18 17:26:00,77.4,59.9,29.47,NNW,331,3.5,3.5,55,0.00,CLR,,0.00,WeatherDisplay:10.37,2013-07-19 00:26:00,
2013-07-18 17:31:00,77.7,59.2,29.47,NNW,329,3.5,3.5,53,0.00,CLR,,0.00,WeatherDisplay:10.37,2013-07-19 00:31:00,
2013-07-18 17:36:00,78.6,60.1,29.47,North,353,3.5,0.0,53,0.00,CLR,,0.00,WeatherDisplay:10.37,2013-07-19 00:36:00,
2013-07-18 17:41:00,78.4,59.9,29.47,WNW,297,3.5,3.5,53,0.00,CLR,,0.00,WeatherDisplay:10.37,2013-07-19 00:41:00,
2013-07-18 17:46:00,78.6,60.1,29.47,WNW,294,3.5,0.0,53,0.00,CLR,,0.00,WeatherDisplay:10.37,2013-07-19 00:46:00,
2013-07-18 17:51:00,79.0,59.9,29.47,WNW,294,0.0,0.0,52,0.00,CLR,,0.00,WeatherDisplay:10.37,2013-07-19 00:51:00,
2013-07-18 17:56:00,78.8,59.7,29.47,SSE,160,2.3,0.0,52,0.00,CLR,,0.00,WeatherDisplay:10.37,2013-07-19 00:56:00,
2013-07-18 18:01:00,79.2,60.0,29.47,SSE,151,3.5,3.5,52,0.00,CLR,,0.00,WeatherDisplay:10.37,2013-07-19 01:01:00,
2013-07-18 18:06:00,79.7,60.5,29.47,North,353,2.3,0.0,52,0.00,CLR,,0.00,WeatherDisplay:10.37,2013-07-19 01:06:00,
2013-07-18 18:11:00,79.5,60.4,29.47,East,87,3.5,3.5,52,0.00,CLR,,0.00,WeatherDisplay:10.37,2013-07-19 01:11:00,
2013-07-18 18:16:00,78.6,60.1,29.47,East,82,2.3,0.0,53,0.00,CLR,,0.00,WeatherDisplay:10.37,2013-07-19 01:16:00,
2013-07-18 18:21:00,77.9,59.4,29.47,NNW,343,3.6,3.6,53,0.00,CLR,,0.00,WeatherDisplay:10.37,2013-07-19 01:21:00,
2013-07-18 18:26:00,77.4,58.9,29.47,SSE,156,2.2,0.0,53,0.00,CLR,,0.00,WeatherDisplay:10.37,2013-07-19 01:26:00,
2013-07-18 18:31:00,76.8,58.4,29.47,NNE,26,2.3,0.0,53,0.00,CLR,,0.00,WeatherDisplay:10.37,2013-07-19 01:31:00,
2013-07-18 18:36:00,76.3,57.9,29.47,NNW,329,3.5,3.5,53,0.00,CLR,,0.00,WeatherDisplay:10.37,2013-07-19 01:36:00,
2013-07-18 18:41:00,75.6,58.3,29.47,NNW,338,2.3,0.0,55,0.00,CLR,,0.00,WeatherDisplay:10.37,2013-07-19 01:41:00,
2013-07-18 18:46:00,75.4,58.1,29.47,NNE,15,2.3,0.0,55,0.00,CLR,,0.00,WeatherDisplay:10.37,2013-07-19 01:46:00,
2013-07-18 18:51:00,74.8,58.1,29.47,WSW,247,3.5,0.0,56,0.00,CLR,,0.00,WeatherDisplay:10.37,2013-07-19 01:51:00,
2013-07-18 18:56:00,74.5,57.8,29.47,North,10,4.6,0.0,56,0.00,CLR,,0.00,WeatherDisplay:10.37,2013-07-19 01:56:00,
2013-07-18 19:01:00,74.1,57.4,29.47,East,101,0.0,0.0,56,0.00,CLR,,0.00,WeatherDisplay:10.37,2013-07-19 02:01:00,
2013-07-18 19:06:00,73.9,57.3,29.47,WSW,246,3.5,0.0,56,0.00,CLR,,0.00,WeatherDisplay:10.37,2013-07-19 02:06:00,
2013-07-18 19:11:00,73.8,57.1,29.47,ESE,105,2.3,0.0,56,0.00,CLR,,0.00,WeatherDisplay:10.37,2013-07-19 02:11:00,
2013-07-18 19:16:00,73.4,56.7,29.47,WNW,301,3.5,0.0,56,0.00,CLR,,0.00,WeatherDisplay:10.37,2013-07-19 02:16:00,
2013-07-18 19:21:00,73.2,57.1,29.47,NE,47,3.1,3.1,57,0.00,CLR,,0.00,WeatherDisplay:10.37,2013-07-19 02:21:00,
2013-07-18 19:26:00,73.0,56.9,29.47,NNW,329,0.0,0.0,57,0.00,CLR,,0.00,WeatherDisplay:10.37,2013-07-19 02:26:00,
2013-07-18 19:31:00,72.7,56.6,29.47,NW,316,0.0,0.0,57,0.00,CLR,,0.00,WeatherDisplay:10.37,2013-07-19 02:31:00,
2013-07-18 19:36:00,72.5,56.4,29.47,NW,316,0.0,0.0,57,0.00,CLR,,0.00,WeatherDisplay:10.37,2013-07-19 02:36:00,
2013-07-18 19:41:00,72.3,56.2,29.47,NW,316,0.0,0.0,57,0.00,CLR,,0.00,WeatherDisplay:10.37,2013-07-19 02:41:00,
2013-07-18 19:46:00,72.0,55.9,29.47,NNW,335,0.0,0.0,57,0.00,CLR,,0.00,WeatherDisplay:10.37,2013-07-19 02:46:00,
2013-07-18 19:51:00,71.8,55.7,29.47,NNW,348,2.3,0.0,57,0.00,CLR,,0.00,WeatherDisplay:10.37,2013-07-19 02:51:00,
2013-07-18 19:56:00,71.6,55.6,29.47,NE,42,0.0,0.0,57,0.00,CLR,,0.00,WeatherDisplay:10.37,2013-07-19 02:56:00,
2013-07-18 20:01:00,71.4,55.4,29.47,ENE,57,0.0,0.0,57,0.00,CLR,,0.00,WeatherDisplay:10.37,2013-07-19 03:01:00,
2013-07-18 20:06:00,71.2,55.7,29.47,ENE,57,0.0,0.0,58,0.00,CLR,,0.00,WeatherDisplay:10.37,2013-07-19 03:06:00,
2013-07-18 20:11:00,70.9,55.4,29.47,ENE,57,0.0,0.0,58,0.00,CLR,,0.00,WeatherDisplay:10.37,2013-07-19 03:11:00,
2013-07-18 20:16:00,70.9,55.4,29.47,NE,54,0.0,0.0,58,0.00,CLR,,0.00,WeatherDisplay:10.37,2013-07-19 03:16:00,
2013-07-18 20:21:00,70.7,55.2,29.47,NE,54,0.0,0.0,58,0.00,CLR,,0.00,WeatherDisplay:10.37,2013-07-19 03:21:00,
2013-07-18 20:26:00,70.3,54.9,29.47,NE,54,0.0,0.0,58,0.00,CLR,,0.00,WeatherDisplay:10.37,2013-07-19 03:26:00,
2013-07-18 20:31:00,70.0,54.5,29.47,NE,54,0.0,0.0,58,0.00,CLR,,0.00,WeatherDisplay:10.37,2013-07-19 03:31:00,
2013-07-18 20:36:00,70.0,54.5,29.47,NE,54,0.0,0.0,58,0.00,CLR,,0.00,WeatherDisplay:10.37,2013-07-19 03:36:00,
2013-07-18 20:41:00,69.6,54.7,29.47,NE,54,0.0,0.0,59,0.00,CLR,,0.00,WeatherDisplay:10.37,2013-07-19 03:41:00,
2013-07-18 20:46:00,69.4,54.5,29.47,NE,54,0.0,0.0,59,0.00,CLR,,0.00,WeatherDisplay:10.37,2013-07-19 03:46:00,
2013-07-18 20:51:00,69.1,54.1,29.47,NE,54,0.0,0.0,59,0.00,CLR,,0.00,WeatherDisplay:10.37,2013-07-19 03:51:00,
2013-07-18 20:56:00,68.7,54.3,29.47,NE,54,0.0,0.0,60,0.00,CLR,,0.00,WeatherDisplay:10.37,2013-07-19 03:56:00,
2013-07-18 21:01:00,68.4,53.9,29.47,NE,54,0.0,0.0,60,0.00,CLR,,0.00,WeatherDisplay:10.37,2013-07-19 04:01:00,
2013-07-18 21:06:00,68.0,53.6,29.47,NE,54,0.0,0.0,60,0.00,CLR,,0.00,WeatherDisplay:10.37,2013-07-19 04:06:00,
2013-07-18 21:11:00,67.8,53.9,29.47,NE,54,0.0,0.0,61,0.00,CLR,,0.00,WeatherDisplay:10.37,2013-07-19 04:11:00,
2013-07-18 21:17:00,67.5,53.1,29.47,NE,54,0.0,0.0,60,0.00,CLR,,0.00,WeatherDisplay:10.37,2013-07-19 04:17:00,
2013-07-18 21:22:00,66.9,53.0,29.47,NE,54,0.0,0.0,61,0.00,CLR,,0.00,WeatherDisplay:10.37,2013-07-19 04:22:00,
2013-07-18 21:27:00,66.7,52.9,29.47,NE,54,0.0,0.0,61,0.00,CLR,,0.00,WeatherDisplay:10.37,2013-07-19 04:27:00,
2013-07-18 21:37:00,66.2,52.8,29.50,NE,54,0.0,0.0,62,0.00,CLR,,0.00,WeatherDisplay:10.37,2013-07-19 04:37:00,
2013-07-18 21:42:00,66.0,52.6,29.50,NE,54,0.0,0.0,62,0.00,CLR,,0.00,WeatherDisplay:10.37,2013-07-19 04:42:00,
2013-07-18 21:47:00,65.7,52.3,29.50,NE,54,0.0,0.0,62,0.00,CLR,,0.00,WeatherDisplay:10.37,2013-07-19 04:47:00,
2013-07-18 21:52:00,65.1,52.2,29.50,ENE,65,2.3,0.0,63,0.00,CLR,,0.00,WeatherDisplay:10.37,2013-07-19 04:52:00,
2013-07-18 21:57:00,64.9,52.5,29.50,ENE,65,0.0,0.0,64,0.00,CLR,,0.00,WeatherDisplay:10.37,2013-07-19 04:57:00,
2013-07-18 22:02:00,64.8,52.3,29.50,ENE,66,2.3,0.0,64,0.00,CLR,,0.00,WeatherDisplay:10.37,2013-07-19 05:02:00,
2013-07-18 22:07:00,64.6,52.1,29.50,ENE,67,0.0,0.0,64,0.00,CLR,,0.00,WeatherDisplay:10.37,2013-07-19 05:07:00,
2013-07-18 22:12:00,64.4,52.0,29.50,ENE,67,0.0,0.0,64,0.00,CLR,,0.00,WeatherDisplay:10.37,2013-07-19 05:12:00,
2013-07-18 22:17:00,64.0,51.6,29.50,ENE,67,0.0,0.0,64,0.00,CLR,,0.00,WeatherDisplay:10.37,2013-07-19 05:17:00,
2013-07-18 22:22:00,63.9,51.9,29.50,ENE,67,0.0,0.0,65,0.00,CLR,,0.00,WeatherDisplay:10.37,2013-07-19 05:22:00,
2013-07-18 22:27:00,63.7,51.7,29.50,ENE,67,0.0,0.0,65,0.00,CLR,,0.00,WeatherDisplay:10.37,2013-07-19 05:27:00,
2013-07-18 22:32:00,63.5,51.9,29.50,ENE,67,0.0,0.0,66,0.00,CLR,,0.00,WeatherDisplay:10.37,2013-07-19 05:32:00,
2013-07-18 22:37:00,63.7,52.1,29.50,ENE,67,0.0,0.0,66,0.00,CLR,,0.00,WeatherDisplay:10.37,2013-07-19 05:37:00,
2013-07-18 22:42:00,63.7,52.1,29.50,ENE,67,0.0,0.0,66,0.00,CLR,,0.00,WeatherDisplay:10.37,2013-07-19 05:42:00,
2013-07-18 22:47:00,63.9,52.3,29.50,ENE,62,0.0,0.0,66,0.00,CLR,,0.00,WeatherDisplay:10.37,2013-07-19 05:47:00,
2013-07-18 22:52:00,63.9,52.3,29.50,ENE,60,0.0,0.0,66,0.00,CLR,,0.00,WeatherDisplay:10.37,2013-07-19 05:52:00,
2013-07-18 22:57:00,63.9,52.3,29.50,East,84,0.0,0.0,66,0.00,CLR,,0.00,WeatherDisplay:10.37,2013-07-19 05:57:00,
2013-07-18 23:02:00,63.9,52.3,29.50,East,82,0.0,0.0,66,0.00,CLR,,0.00,WeatherDisplay:10.37,2013-07-19 06:02:00,
2013-07-18 23:07:00,63.7,52.1,29.50,East,82,0.0,0.0,66,0.00,CLR,,0.00,WeatherDisplay:10.37,2013-07-19 06:07:00,
2013-07-18 23:12:00,63.7,52.1,29.50,ESE,110,0.0,0.0,66,0.00,CLR,,0.00,WeatherDisplay:10.37,2013-07-19 06:12:00,
2013-07-18 23:17:00,63.7,52.1,29.50,SE,125,0.0,0.0,66,0.00,CLR,,0.00,WeatherDisplay:10.37,2013-07-19 06:17:00,
2013-07-18 23:22:00,63.5,51.9,29.50,West,268,2.3,0.0,66,0.00,CLR,,0.00,WeatherDisplay:10.37,2013-07-19 06:22:00,
2013-07-18 23:27:00,63.5,51.9,29.50,SSE,154,2.3,0.0,66,0.00,CLR,,0.00,WeatherDisplay:10.37,2013-07-19 06:27:00,
2013-07-18 23:32:00,63.5,51.9,29.50,SSE,154,0.0,0.0,66,0.00,CLR,,0.00,WeatherDisplay:10.37,2013-07-19 06:32:00,
2013-07-18 23:37:00,63.3,52.2,29.50,SSE,154,0.0,0.0,67,0.00,CLR,,0.00,WeatherDisplay:10.37,2013-07-19 06:37:00,
2013-07-18 23:42:00,63.3,52.2,29.50,SSE,154,0.0,0.0,67,0.00,CLR,,0.00,WeatherDisplay:10.37,2013-07-19 06:42:00,
2013-07-18 23:47:00,63.3,52.2,29.50,NE,46,2.3,0.0,67,0.00,CLR,,0.00,WeatherDisplay:10.37,2013-07-19 06:47:00,
2013-07-18 23:52:00,63.1,52.0,29.50,South,170,0.0,0.0,67,0.00,CLR,,0.00,WeatherDisplay:10.37,2013-07-19 06:52:00,
2013-07-18 23:57:00,63.1,51.6,29.50,South,170,0.0,0.0,66,0.00,CLR,,0.00,WeatherDisplay:10.37,2013-07-19 06:57:00,